Weather in Malyye Tuvany

Russia / Chuvash Republic     55°41′00″N   46°41′14″E
temp.,
°C
wind,
m/s
gust,
m/s
humid.,
%
clouds,
%
prec.,
mm/h
press.,
hPa
HPBL,
m
16 may, sun
sun1600:00+17s4117418 0.0 1014186
03:00+15s337655 0.0 101527
06:00+17s247667 0.0 1015118
09:00+22ssw475939 0.0 1015540
12:00+25sw5657100 0.0 10151087
15:00+25sw585777 0.1 10151598
18:00+20wsw36785 0.9 1015103
21:00+18sw348536 0.9 101551
17 may, mon
mon1700:00+17w2290100 0.3 101617
03:00+16e009040 0.3 101711
06:00+18ne00835 0.0 101880
09:00+23e116836 0.0 1018542
12:00+26wsw12525 0.0 10181171
15:00+28wsw134335 0.0 10171519
18:00+25nw226657 0.0 101731
21:00+20ne3375100 0.0 101835
18 may, tue
tue1800:00+18ese348040 0.0 101844
03:00+18ese227375 0.0 101717
06:00+19ese3473100 0.0 101899
09:00+24ese575762 0.0 1018426
12:00+27se4645100 0.0 10171086
15:00+28ese464230 0.0 10171158
18:00+24ese496115 0.0 1016199
21:00+19ese485877 0.0 1017103
19 may, wed
wed1900:00+17ese4127981 0.0 1017207
03:00+15ese4127666 0.0 1017213
06:00+17ese512795 0.0 1016264
09:00+23se710645 0.0 1016534
12:00+25ese79565 0.0 10161101
15:00+26ese710595 0.0 10151605
18:00+22ese714652 0.0 1014526
21:00+19ese616660 0.0 1013414
20 may, thu
thu2000:00+17se5127551 0.1 1013322
03:00+16se49865 0.1 1012190
06:00+17s598734 0.3 1012542
09:00+19sse69686 0.3 10131060
12:00+16sse81286100 3.1 1013837
15:00+19ssw812614 3.7 10132025
18:00+15ssw7127734 1.1 1014949
21:00+12ssw613863 1.2 1016629